Regional Weather Roundup
Issued by NWS

Home | Current Version | Previous Version | Graphics & Text | Print | Product List | Glossary On
Versions: 1 2 3 4 5 6 7 8 9 10 11 12 13 14 15 16 17 18 19 20 21 22 23 24 25 26 27 28 29 30 31 32 33 34 35 36 37 38 39 40 41 42 43 44 45 46 47 48
000
ASUS45 KTFX 271910
RWRMT
MONTANA REGIONAL WEATHER ROUNDUP
NATIONAL WEATHER SERVICE GREAT FALLS MT
100 PM MDT WED MAY 27 2015

NOTE: "FAIR" INDICATES FEW OR NO CLOUDS BELOW 12000 FEET WITH NO
SIGNIFICANT WEATHER AND/OR OBSTRUCTIONS TO VISIBILITY.

MTZ001>007-043-272000-
WEST OF THE DIVIDE

CITY           SKY/WX    TMP DP  RH WIND       PRES   REMARKS
KALISPELL      CLOUDY    62  46  55 CALM      30.02F
MISSOULA       PTSUNNY   65  43  44 S7        30.01F
BUTTE          PTSUNNY   55  41  59 NW6       30.05F
MULLAN PASS    CLOUDY    47  41  80 CALM      30.09S
DEER LODGE       N/A     57  43  58 N5        30.07F
EUREKA           N/A     64  46  52 CALM      30.02F
HAMILTON         N/A     63  41  45 NE8       30.01F
LIBBY            N/A     63  52  67 CALM      30.03F
$$

MTZ008-052>055-272000-
SOUTHWEST MONTANA

CITY           SKY/WX    TMP DP  RH WIND       PRES   REMARKS
BOZEMAN        MOSUNNY   62  44  51 VRB3      30.01F
DILLON         CLOUDY    51  41  68 W20       30.04R
W YELLOWSTONE  PTSUNNY   55  37  50 S14       30.07F
$$

MTZ009-010-012-014-046-048-049-054-272000-
EAST SLOPES AND CENTRAL MONTANA

CITY           SKY/WX    TMP DP  RH WIND       PRES   REMARKS
CUT BANK       CLOUDY    62  46  55 NW8       30.01F
GREAT FALLS    CLOUDY    57  49  74 W12       30.02S
MALMSTROM AFB  PTSUNNY   59  48  68 W14       30.02F
HELENA         PTSUNNY   61  46  57 N5        30.01F
$$

MTZ011-013-016-021-045-047-050-051-272000-
NORTH CENTRAL MONTANA

CITY           SKY/WX    TMP DP  RH WIND       PRES   REMARKS
HAVRE          PTSUNNY   72  46  39 VRB5      29.92F
LEWISTOWN      CLOUDY    62  50  64 W7        30.00F
N BAR RANCH    LGT RAIN  52  50  93 W3        30.05R
CHINOOK          N/A     68  50  52 S3        29.93F
FORT BENTON      N/A     66  52  59 S14G20    29.98F
$$

MTZ017>020-022>027-061-062-272000-
NORTHEAST MONTANA

CITY           SKY/WX    TMP DP  RH WIND       PRES   REMARKS
GLASGOW        PTSUNNY   66  54  65 E15       29.92F
JORDAN           N/A     68  52  56 NE3       29.93F
SIDNEY         PTSUNNY   75  39  27 CALM      29.90F
WOLF POINT     CLOUDY    63  58  83 MISG      29.94S
PLENTYWOOD       N/A     70  50  49 W8        29.93F
POPLAR           N/A     63  54  72 CALM      29.95R
$$

MTZ028>42-056>058-272000-
SOUTHCENTRAL AND SOUTHEAST MONTANA

CITY           SKY/WX    TMP DP  RH WIND       PRES   REMARKS
BAKER          PTSUNNY   76  51  41 S14G21    29.92F
BILLINGS       PTSUNNY   65  50  58 N7        29.98S
LIVINGSTON     PTSUNNY   64  43  46 NW10      30.00F
MILES CITY     LGT RAIN  57  55  93 NE7       29.96F
BIG TIMBER       N/A     63  46  55 NE9       30.00F
FORSYTH          N/A     66  55  68 CALM      29.95F
$$

REGIONAL REPORTS...DAKOTAS

CITY           SKY/WX    TMP DP  RH WIND       PRES   REMARKS
WILLISTON      CLOUDY    83  41  22 SE13G21   29.89F
MINOT          MOSUNNY   77  51  40 NE6       29.95F
DICKINSON      PTSUNNY   78  49  35 SE18      29.90F
BEACH            N/A     63  48  59 NW8       29.92F
CROSBY         MOCLDY    72  50  46 E16       29.95S
WATFORD CITY   FAIR      77  48  36 SE7G20    29.87F
BISMARCK       PTSUNNY   81  48  31 SE13      29.95F
GRAND FORKS    SUNNY     72  50  45 N10       29.97S
FARGO          SUNNY     78  54  43 W5        29.96R
BUFFALO SD       N/A     71  53  52 S9        29.88F
RAPID CITY     PTSUNNY   70  56  61 SE14G25   29.95F
$$

REGIONAL REPORTS...WYOMING/IDAHO/WASHINGTON

CITY           SKY/WX    TMP DP  RH WIND       PRES   REMARKS
GILLETTE       PTSUNNY   67  49  52 S13       29.96F
SHERIDAN       LGT RAIN  63  49  60 W8        29.98F
BUFFALO WY     PTSUNNY   63  49  60 N10       30.02S
CODY           PTSUNNY   63  48  59 N8        30.00F
IDAHO FALLS    PTSUNNY   62  49  62 SW8       30.05F
SALMON         CLOUDY    57  45  62 N6        30.02F
BOISE          SUNNY     69  48  47 CALM      29.99F
SPOKANE        PTSUNNY   66  47  50 S5        30.02S
$$

REGIONAL REPORTS...ALBERTA

CITY           SKY/WX    TMP DP  RH WIND       PRES   REMARKS
EDMONTON       MOSUNNY   72  50  46 W5        29.93F
CALGARY        PTSUNNY   68  46  45 CALM      30.00F
MEDICINE HAT   CLOUDY    70  48  46 NW5       29.94F
$$

REGIONAL REPORTS...SASKATCHEWAN

CITY           SKY/WX    TMP DP  RH WIND       PRES   REMARKS
SWIFT CURRENT  MOSUNNY   72  45  37 E18G28    29.95F
REGINA         CLOUDY    68  48  49 E10G17    29.98F
SASKATOON      MOSUNNY   64  39  39 VRB6      30.03F
$$


USA.gov is the U.S. government's official web portal to all federal, state and local government web resources and services.